• In Uzbekistan
  • List of Countries
  • For 7 days
  • Water Temperature
  • Weather Map
  • Weather Widgets
  • user-avatar
    Login

    Hourly Weather Tashkent

    Today, 28 February, Friday

    Time Temperature Precipitation Wind Pressure Humidity
    00:00 +3°C° 0 mm 1 mps 728 mmHg 75%
    01:00 +3°C° 0 mm 1 mps 728 mmHg 77%
    02:00 +2°C° 0 mm 1 mps 727 mmHg 78%
    03:00 +2°C° 0 mm 1 mps 727 mmHg 78%
    04:00 +2°C° 0 mm 1 mps 727 mmHg 79%
    05:00 +2°C° 0 mm 1 mps 727 mmHg 79%
    06:00 +2°C° 0 mm 1 mps 727 mmHg 78%
    07:00 +2°C° 0 mm 1 mps 727 mmHg 78%
    08:00 +3°C° 0 mm 1 mps 727 mmHg 77%
    09:00 +4°C° 0 mm 1 mps 727 mmHg 71%
    10:00 +5°C° 0 mm 1 mps 726 mmHg 66%
    11:00 +7°C° 0 mm 1 mps 726 mmHg 60%
    12:00 +8°C° 0 mm 1 mps 726 mmHg 58%
    13:00 +9°C° 0 mm 1 mps 725 mmHg 56%
    14:00 +10°C° 0 mm 1 mps 725 mmHg 54%
    15:00 +10°C° 0 mm 1 mps 725 mmHg 54%
    16:00 +11°C° 0 mm 1 mps 725 mmHg 54%
    17:00 +11°C° 0 mm 1 mps 725 mmHg 54%
    18:00 +10°C° 0 mm 1 mps 725 mmHg 58%
    19:00 +9°C° 0 mm 1 mps 725 mmHg 63%
    20:00 +8°C° 0 mm 1 mps 725 mmHg 68%
    21:00 +8°C° 0 mm 1 mps 725 mmHg 69%
    22:00 +7°C° 0 mm 1 mps 724 mmHg 70%
    23:00 +7°C° 0 mm 1 mps 724 mmHg 72%

    Tomorrow, 29 February, Saturday

    Time Temperature Precipitation Wind Pressure Humidity
    00:00 +7°C° 0 mm 1 mps 724 mmHg 72%
    01:00 +7°C° 0 mm 1 mps 723 mmHg 72%
    02:00 +7°C° 0 mm 1 mps 723 mmHg 72%
    03:00 +6°C° 0 mm 1 mps 723 mmHg 71%
    04:00 +6°C° 0 mm 1 mps 722 mmHg 70%
    05:00 +6°C° 0 mm 1 mps 722 mmHg 69%
    06:00 +6°C° 0 mm 1 mps 722 mmHg 66%
    07:00 +7°C° 0 mm 1 mps 722 mmHg 64%
    08:00 +7°C° 0 mm 1 mps 722 mmHg 61%
    09:00 +9°C° 0 mm 1 mps 722 mmHg 53%
    10:00 +11°C° 0 mm 1 mps 722 mmHg 46%
    11:00 +13°C° 0 mm 1 mps 722 mmHg 39%
    12:00 +14°C° 0 mm 1 mps 722 mmHg 36%
    13:00 +15°C° 0 mm 1 mps 721 mmHg 34%
    14:00 +16°C° 0 mm 2 mps 721 mmHg 31%
    15:00 +16°C° 0 mm 1 mps 721 mmHg 33%
    16:00 +16°C° 0 mm 1 mps 721 mmHg 36%
    17:00 +16°C° 0 mm 1 mps 720 mmHg 38%
    18:00 +15°C° 0 mm 1 mps 721 mmHg 42%
    19:00 +14°C° 0 mm 1 mps 721 mmHg 47%
    20:00 +12°C° 0 mm 1 mps 721 mmHg 51%
    21:00 +12°C° 0 mm 1 mps 721 mmHg 51%
    22:00 +11°C° 0 mm 1 mps 721 mmHg 51%
    23:00 +11°C° 0 mm 1 mps 721 mmHg 51%

    Day after tomorrow, 1 March, Sunday

    Time Temperature Precipitation Wind Pressure Humidity
    00:00 +11°C° 0 mm 1 mps 721 mmHg 50%
    01:00 +10°C° 0 mm 2 mps 720 mmHg 48%
    02:00 +9°C° 0 mm 2 mps 720 mmHg 47%
    03:00 +9°C° 0 mm 2 mps 720 mmHg 46%
    04:00 +9°C° 0 mm 2 mps 720 mmHg 44%
    05:00 +9°C° 0 mm 2 mps 720 mmHg 43%
    06:00 +9°C° 0 mm 2 mps 720 mmHg 43%
    07:00 +10°C° 0 mm 1 mps 720 mmHg 42%
    08:00 +11°C° 0 mm 1 mps 720 mmHg 42%
    09:00 +13°C° 0 mm 1 mps 720 mmHg 38%
    10:00 +15°C° 0 mm 1 mps 721 mmHg 35%
    11:00 +18°C° 0 mm 1 mps 721 mmHg 31%
    12:00 +19°C° 0 mm 1 mps 721 mmHg 29%
    13:00 +20°C° 0 mm 1 mps 721 mmHg 28%
    14:00 +21°C° 0 mm 1 mps 720 mmHg 26%
    15:00 +19°C° 0 mm 0 mps 720 mmHg 28%
    16:00 +19°C° 0 mm 0 mps 720 mmHg 30%
    17:00 +19°C° 0 mm 0 mps 720 mmHg 33%
    18:00 +18°C° 0 mm 0 mps 720 mmHg 34%
    19:00 +18°C° 0 mm 1 mps 720 mmHg 36%
    20:00 +16°C° 0 mm 1 mps 720 mmHg 38%
    21:00 +15°C° 0 mm 1 mps 720 mmHg 40%
    22:00 +15°C° 0 mm 2 mps 720 mmHg 42%
    23:00 +14°C° 0 mm 2 mps 720 mmHg 44%

    2 March, Monday

    Time Temperature Precipitation Wind Pressure Humidity
    00:00 +14°C° 0 mm 2 mps 720 mmHg 44%
    01:00 +13°C° 0 mm 2 mps 720 mmHg 44%
    02:00 +13°C° 0 mm 2 mps 720 mmHg 44%
    03:00 +13°C° 0 mm 2 mps 720 mmHg 43%
    04:00 +13°C° 0 mm 2 mps 720 mmHg 43%
    05:00 +12°C° 0 mm 2 mps 720 mmHg 43%
    06:00 +13°C° 0 mm 2 mps 720 mmHg 43%
    07:00 +13°C° 0 mm 2 mps 720 mmHg 43%
    08:00 +13°C° 0 mm 1 mps 721 mmHg 43%
    09:00 +15°C° 0 mm 1 mps 721 mmHg 39%
    10:00 +16°C° 0 mm 1 mps 721 mmHg 36%
    11:00 +19°C° 0 mm 1 mps 721 mmHg 32%
    12:00 +20°C° 0 mm 1 mps 721 mmHg 30%
    13:00 +21°C° 0 mm 1 mps 721 mmHg 29%
    14:00 +22°C° 0 mm 1 mps 721 mmHg 27%
    15:00 +22°C° 0 mm 1 mps 720 mmHg 29%
    16:00 +22°C° 0 mm 1 mps 720 mmHg 31%
    17:00 +20°C° 0 mm 0 mps 720 mmHg 33%
    18:00 +20°C° 0 mm 1 mps 720 mmHg 36%
    19:00 +19°C° 0 mm 1 mps 720 mmHg 38%
    20:00 +16°C° 0 mm 1 mps 720 mmHg 40%
    21:00 +16°C° 0 mm 2 mps 720 mmHg 41%
    22:00 +15°C° 0 mm 2 mps 720 mmHg 42%
    23:00 +15°C° 0 mm 2 mps 720 mmHg 43%

    3 March, Tuesday

    Time Temperature Precipitation Wind Pressure Humidity
    00:00 +14°C° 0 mm 2 mps 720 mmHg 43%
    01:00 +14°C° 0 mm 2 mps 719 mmHg 42%
    02:00 +14°C° 0 mm 2 mps 719 mmHg 41%
    03:00 +13°C° 0 mm 2 mps 719 mmHg 41%
    04:00 +13°C° 0 mm 2 mps 719 mmHg 40%
    05:00 +13°C° 0 mm 2 mps 718 mmHg 40%
    06:00 +13°C° 0 mm 2 mps 719 mmHg 40%
    07:00 +13°C° 0 mm 2 mps 719 mmHg 39%
    08:00 +13°C° 0 mm 1 mps 719 mmHg 39%
    09:00 +15°C° 0 mm 1 mps 719 mmHg 37%
    10:00 +16°C° 0 mm 1 mps 720 mmHg 36%
    11:00 +18°C° 0 mm 1 mps 720 mmHg 34%
    12:00 +18°C° 0 mm 2 mps 719 mmHg 34%
    13:00 +18°C° 0 mm 2 mps 719 mmHg 34%
    14:00 +19°C° 0 mm 2 mps 719 mmHg 34%
    15:00 +19°C° 0 mm 3 mps 719 mmHg 40%
    16:00 +18°C° 0 mm 3 mps 719 mmHg 45%
    17:00 +17°C° 0 mm 4 mps 720 mmHg 51%
    18:00 +14°C° 0 mm 4 mps 720 mmHg 55%
    19:00 +13°C° 0 mm 4 mps 720 mmHg 60%
    20:00 +10°C° 0 mm 5 mps 720 mmHg 65%
    21:00 +9°C° 0 mm 5 mps 720 mmHg 64%
    22:00 +10°C° 0 mm 4 mps 720 mmHg 63%
    23:00 +8°C° 0 mm 4 mps 720 mmHg 62%

    4 March, Wednesday

    Time Temperature Precipitation Wind Pressure Humidity
    00:00 +7°C° 0 mm 4 mps 720 mmHg 63%
    01:00 +8°C° 0 mm 3 mps 720 mmHg 64%
    02:00 +8°C° 0 mm 3 mps 721 mmHg 65%
    03:00 +7°C° 0 mm 3 mps 721 mmHg 69%
    04:00 +5°C° 0 mm 3 mps 721 mmHg 72%
    05:00 +4°C° 0 mm 3 mps 721 mmHg 76%
    06:00 +5°C° 0 mm 2 mps 721 mmHg 76%
    07:00 +5°C° 0 mm 2 mps 722 mmHg 76%
    08:00 +6°C° 0 mm 1 mps 722 mmHg 76%
    09:00 +5°C° 0 mm 2 mps 722 mmHg 75%
    10:00 +5°C° 0 mm 2 mps 722 mmHg 75%
    11:00 +5°C° 0 mm 2 mps 723 mmHg 75%
    12:00 +5°C° 0.1 mm 2 mps 723 mmHg 75%
    13:00 +5°C° 0.1 mm 2 mps 722 mmHg 75%
    14:00 +5°C° 0.1 mm 2 mps 722 mmHg 76%
    15:00 +5°C° 0.1 mm 2 mps 723 mmHg 78%
    16:00 +5°C° 0.1 mm 2 mps 723 mmHg 80%
    17:00 +4°C° 0.1 mm 2 mps 723 mmHg 81%
    18:00 +4°C° 0.1 mm 2 mps 723 mmHg 82%
    19:00 +4°C° 0.1 mm 2 mps 724 mmHg 82%
    20:00 +4°C° 0.1 mm 2 mps 724 mmHg 83%
    21:00 +4°C° 0.1 mm 2 mps 724 mmHg 83%
    22:00 +4°C° 0.1 mm 1 mps 724 mmHg 83%
    23:00 +4°C° 0.1 mm 1 mps 724 mmHg 83%
    Show more